Tracking 28895 objects as of 29-May-2024
HD Live streaming from Space Station
objects crossing your sky now

BREEZE-M R/B

Track BREEZE-M R/B now!


NORAD ID: 26738
Int'l Code: 2001-014C
Perigee: 35,695.8 km
Apogee: 37,210.7 km
Inclination: 14.6 °
Period: 1,469.9 minutes
Semi major axis: 42824 km
RCS: 0.6845 m2 (medium)
Launch date: April 7, 2001
Source: Commonwealth of Independent States (former USSR) (CIS)
Launch site: TYURATAM MISSILE AND SPACE COMPLEX (TTMTR)

Note: This is a ROCKET BODY
Your satellite tracking list
Your tracking list is empty




NASA's NSSDC Master Catalog

Two Line Element Set (TLE):
1 26738U 01014C   24149.56854959 -.00000154  00000-0  00000-0 0  9994
2 26738  14.5778  19.9680 0176876 216.2915 322.7081  0.97964293 82815
Source of the keplerian elements: AFSPC